User: anonymous   Login
Location: Azenweiler
(47.8027°N, 9.4096°E)
Time: 01:37:52
(UTC+00:00)
Language:

IRIDIUM 103 - Orbit

View from above orbital plane
View from above orbital plane
View from above satellite
View from above satellite

Ground track
Ground track

The orbit is defined by the following mean orbital elements,

1 41918U          26042.22039963 +.00000000 +00000-0 +10933-3 0 00003
2 41918  86.4019 141.1125 0002452  91.7814 268.3662 14.34219776    08
Epoch (UTC): 11 February 2026 05:17:22
Eccentricity: 0.0002452
inclination: 86.4019°
perigee height: 776 km
apogee height: 779 km
right ascension of ascending node: 141.1125°
argument of perigee: 91.7814°
revolutions per day: 14.34219776
mean anomaly at epoch: 268.3662°

The dashed part of the orbit path shows where the satellite is in the earth's shadow,  

DLR